AirNav   ATP
 
 513 users online  

8B1 Hawthorne-Feather Airpark
Hillsboro, New Hampshire, USA

GOING TO HILLSBORO?


FAA INFORMATION EFFECTIVE 13 SEPTEMBER 2018

Location

FAA Identifier: 8B1
Lat/Long: 43-03-40.6000N / 071-54-19.3000W
43-03.676667N / 071-54.321667W
43.0612778 / -71.9053611
(estimated)
Elevation: 600 ft. / 183 m (estimated)
Variation: 16W (1985)
From city: 3 miles S of HILLSBORO, NH
Time zone: UTC -4 (UTC -5 during Standard Time)
Zip code: 03244

Airport Operations

Airport use: Open to the public
Activation date: 02/1966
Control tower: no
ARTCC: BOSTON CENTER
FSS: BANGOR FLIGHT SERVICE STATION
NOTAMs facility: BGR (NOTAM-D service available)
Attendance: UNATNDD
Wind indicator: yes
Segmented circle: no
Lights: ACTVT MIRL RY 02/20 - CTAF.
Beacon: white-green (lighted land airport)
ROTATING BCN OTS INDEFLY.

Airport Communications

CTAF/UNICOM: 122.8
WX ASOS at AFN (16 nm S): 135.875 (603-532-6195)
WX AWOS-3PT at EEN (19 nm SW): 119.025 (603-358-6424)
WX ASOS at CON (20 nm NE): 132.325 (603-224-6558)

Nearby radio navigation aids

VOR radial/distance  VOR name  Freq  Var
CONr252/17.3CONCORD VOR/DME112.9015W
EENr061/23.3KEENE VORTAC109.4014W
MHTr311/26.2MANCHESTER VOR/DME114.4015W
GDMr026/31.6GARDNER VOR/DME110.6014W
LEBr175/39.5LEBANON VOR/DME113.7015W

 
NDB name  Hdg/Dist  Freq  Var  ID
CLAREMONT148/27.523316WCNH -.-. -. ....
FITCHBURG003/31.336515WFIT ..-. .. -

Airport Services

Fuel available: 100LL
SELF SERV FUEL AVBL 24 HRS BY CREDIT CARD SYSTEM.
Parking: hangars and tiedowns
Bottled oxygen: NONE
Bulk oxygen: NONE

Runway Information

Runway 2/20

Dimensions: 3260 x 75 ft. / 994 x 23 m
Surface: asphalt, in fair condition
RY SURFACE UNEVEN WITH LARGE OPEN CRACKS.
Weight bearing capacity: 
Single wheel: 8.0
Runway edge lights: medium intensity
MIRL RY 02/20 OTS INDEFLY.
Runway edge markings: MARKINGS FADED
RUNWAY 2  RUNWAY 20
Latitude: 43-03.407730N43-03.944378N
Longitude: 071-54.312915W071-54.329765W
Elevation: 593.0 ft.599.0 ft.
Traffic pattern: leftright
Runway heading: 015 magnetic, 359 true195 magnetic, 179 true
Markings: basic, in poor conditionbasic, in poor condition
Runway end identifier lights: no
Obstructions: 80 ft. trees, 560 ft. from runway, 80 ft. right of centerline, 5:1 slope to clear
50 FT GROVE OF TREES AT THR 65 FT L AND 30 FT TREE 130 FT FROM THRESHOLD 85 FT RIGHT
60 ft. trees, 360 ft. from runway, 90 ft. right of centerline, 3:1 slope to clear
RY 20 HAS +60 TREES AT THLD 90 FT R.

Airport Ownership and Management from official FAA records

Ownership: Privately-owned
Owner: JAMES T. RYMES
2 MAIN ST
ANTRIM, NH 03440
Phone 603-588-6868
Manager: ROGER SMITH
2 MAIN ST
ANTRIM, NH 03440
Phone 603-588-6868

Airport Operational Statistics

Aircraft based on the field: 16
Single engine airplanes: 15
Ultralights: 1
    
Aircraft operations: avg 72/week *
43% transient general aviation
43% local general aviation
15% military
* for 12-month period ending 31 December 2016

Additional Remarks

PRIOR TO USING ARPT CALL 603-588-6868 FOR ARPT CONDS.
WILDLIFE ON & INVOF ARPT.
RY LIGHTS & ROTATING BCN OTS INDEFLY.

Instrument Procedures

There are no published instrument procedures at 8B1.

Some nearby airports with instrument procedures:

KAFN - Jaffrey Airport-Silver Ranch (16 nm S)
KEEN - Dillant-Hopkins Airport (19 nm SW)
KCON - Concord Municipal Airport (20 nm NE)
KMHT - Manchester Airport (22 nm E)
2B3 - Parlin Field Airport (23 nm NW)
 
Loc | Ops | Rwys | IFR | FBO | Links
Com | Nav | Svcs | Stats | Notes


 
Area around 8B1 (Hawthorne-Feather Airpark)
 
Road maps at: MapQuest Bing Google
 
Aerial photo
WARNING: Photo may not be current or correct
Aerial photo of 8B1 (Hawthorne-Feather Airpark)
Photo by David Jablonski
Photo taken 09-Apr-2006

Do you have a better or more recent aerial photo of Hawthorne-Feather Airpark that you would like to share? If so, please send us your photo.

 
Sectional chart

 
Airport distance calculator
Flying to Hawthorne-Feather Airpark? Find the distance to fly.

From to 8B1

Sunrise and sunset
Times for 21-Sep-2018
 Local
(UTC-4)
 Zulu
(UTC)
Morning civil twilight06:0610:06
Sunrise06:3510:35
Sunset18:4722:47
Evening civil twilight19:1523:15

Current date and time
Zulu (UTC)  21-Sep-2018 10:49:10
Local (UTC-4)  21-Sep-2018 06:49:10
 
METAR
KAFN 
16nm S 
210952Z AUTO 16004KT 10SM OVC024 14/12 A3029 RMK AO2 SLP262 T01390122
KEEN 
19nm SW 
210956Z AUTO 16003KT 10SM OVC025 A3026 RMK AO2 SLPNO FZRANO $
KCON 
20nm NE 
210951Z AUTO 14003KT 10SM FEW020 BKN041 OVC050 14/13 A3027 RMK AO2 SLP252 T01390128
KMHT 
22nm E 
210953Z 14005KT 10SM SCT022 BKN044 OVC060 15/13 A3027 RMK AO2 SLP263 T01500133
KASH 
25nm SE 
210956Z AUTO 00000KT 10SM OVC044 15/14 A3029 RMK AO2 SLP268 T01500144 PNO $
KFIT 
31nm S 
210952Z AUTO 14004KT 10SM OVC038 14/12 A3030 RMK AO2 SLP260 T01440122
KVSF 
32nm NW 
210954Z AUTO 17005KT 10SM OVC013 14/13 A3025 RMK AO2 SLP245 T01440128 $
TAF
KCON 
20nm NE 
210858Z 2109/2206 00000KT P6SM OVC025 FM211500 18007KT P6SM OVC030 FM212000 22010G22KT P6SM BKN045 BKN120
KMHT 
22nm E 
210858Z 2109/2206 17003KT P6SM OVC025 FM211500 18007KT P6SM OVC030 FM212000 22010G22KT P6SM BKN045 BKN120
NOTAMs
Click for the latest NOTAMs
NOTAMs are issued by the DoD/FAA and will open in a separate window not controlled by AirNav.

 

 
 

FBO, Fuel Providers, and Aircraft Ground Support

  
 Business Name 
 
 Contact 
 
 Services / Description 
 
Fuel Prices
 
Comments
  
Rymes Oil 603-588-6868
no information available

If you are affiliated with Rymes Oil and would like to show here your services, contact info, web link, logo, and more, click here
100LL
SS $4.50 
 Updated 24-May-2018
 
   3 read write
SS=Self service
Update Fuel Prices
 

Would you like to see your business listed on this page?

 If your business provides an interesting product or service to pilots, flight crews, aircraft, or users of the Hawthorne-Feather Airpark, you should consider listing it here.  To start the listing process, click on the button below
 
Add a business
 

Other Pages about Hawthorne-Feather Airpark

Update a link
 
Copyright © AirNav, LLC. All rights reserved. Privacy Policy  Contact